Flag for Austria Weather past 2 weeks in Fürstenfeld, Styria, Austria

Now
71 °F

Mild.


Feels Like: 76 °F
Forecast: 53 / 63 °F
Wind: 3 mph from North

Location: Murska Sobota

Current Time: Sep 4, 2015 at 5:31:20 PM

Latest Report: Sep 4, 2015 at 4:00 PM


Visibility: N/A

Pressure: 29.98 "Hg

Humidity: 62%

Dew point: 57 °F

Location of FürstenfeldLocation

Historic Weather in Fürstenfeld — Graph

°F

Fürstenfeld temperature yesterday

Maximum temperature yesterday: 77 °F (at 4:00 PM)
Minimum temperature yesterday: 58 °F (at 4:00 AM)
Average temperature yesterday: 67 °F

Past Weeks' High & Low Weather Summary

 TemperatureHumidityPressure
High91 °F (Aug 29, 2:00 PM)99% (Aug 27, 7:00 AM)30.24 "Hg (Aug 27, 7:00 AM)
Low53 °F (Aug 27, 6:00 AM)27% (Sep 1, 3:00 PM)29.75 "Hg (Sep 1, 6:00 PM)
Average69 °F73%30.03 "Hg
* Reported Aug 20 3:00 PM — Sep 4 3:00 PM, Fürstenfeld, Weather by CustomWeather, © 2015

Note: Actual official high and low records may vary slightly from our data, if they occured in-between our weather recording intervals... More about our weather records

Advertising

Fürstenfeld weather history for previous 24 hours

 ConditionsComfort  
Time TempWeatherWind HumidityBarometerVisibility
3:00 PM
Fri, Sep 4
68 °FOvercast.3 mph72%30.00 "Hg12 mi
2:00 PM69 °FMild.2 mph62%30.01 "HgN/A
1:00 PM69 °FMild.2 mph67%30.00 "HgN/A
12:00 PM67 °FMild.2 mph72%30.01 "HgN/A
11:00 AM65 °FMild.2 mph78%30.01 "HgN/A
10:00 AM64 °FMild.2 mph80%30.00 "HgN/A
9:00 AM63 °FMild.1 mph83%29.99 "HgN/A
8:00 AM61 °FCool.1 mph88%29.97 "HgN/A
7:00 AM61 °FCool.1 mph93%29.96 "HgN/A
6:00 AM60 °FCool.1 mph90%29.91 "HgN/A
5:00 AM62 °FCool.1 mph89%29.92 "HgN/A
4:00 AM61 °FCool.2 mph94%29.90 "HgN/A
3:00 AM60 °FCool.1 mph96%29.89 "HgN/A
2:00 AM60 °FCool.2 mph94%29.88 "HgN/A
1:00 AM63 °FMild.2 mph89%29.87 "HgN/A
12:00 AM64 °FMild.2 mph89%29.86 "HgN/A
11:00 PM
Thu, Sep 3
66 °FMild.1 mph84%29.86 "HgN/A
10:00 PM68 °FMild.1 mph81%29.87 "HgN/A
9:00 PM69 °FMild.1 mph76%29.87 "HgN/A
8:00 PM71 °FMild.1 mph72%29.86 "HgN/A
7:00 PM73 °FMild.1 mph65%29.85 "HgN/A
6:00 PM74 °FMild.2 mph61%29.86 "HgN/A
5:00 PM75 °FMild.2 mph59%29.87 "HgN/A
Weather by CustomWeather, © 2015

See weather overviewHow to use our weather pages